sat.trackr.live / text

‹ back to catalog

STARLINK-4605

NORAD 53616 · 2022-104AE

PAYLOAD ACTIVE UNKNOWN

§ Identity

Operator
Country
US
Launch date
2022-08-28
Launch site
AFETR
Launch vehicle
Mass (kg)
RCS (m²)

Purposes: comms

External: N2YO · Heavens-Above · Gunter

§ Orbital elements

Epoch: 2026-05-24T15:53:28.358592Z

Period
95.44 min
Inclination
53.2156°
Eccentricity
0.0001082
Mean motion
15.08839680 rev/d
Perigee alt
539.0 km
Apogee alt
540.5 km
Semi-major
6,917.9 km
B*
-2.1576e-6
RAAN
242.9403°
Arg perigee
85.8986°
Mean anomaly
274.2130°
Rev number
20,735

§ Raw data

STARLINK-46051 53616U 22104AE  26144.66213378 -.00000322  00000+0 -21576-5 0  99972 53616  53.2156 242.9403 0001082  85.8986 274.2130 15.08839680207358

JSON: /api/v1/satellites/53616 · /tle

For live sub-satellite position, see the globe view (requires WebGL).

§ Visibility from observer

Set your observer location to see the next 7 days of passes ≥ 10°. The values pass through the URL so the page stays shareable.

No JS? Fill the form by hand. The geolocation button needs JavaScript.